Time,TemperatureF,DewpointF,PressureIn,WindDirection,WindDirectionDegrees,WindSpeedMPH,WindSpeedGustMPH,Humidity,HourlyPrecipIn,Conditions,Clouds,dailyrainin,SoftwareType,DateUTC
2013-08-25 00:00:00,70.7,66.6,30.22,South,172,0.0,0.0,87,0.00,,,0.00,Wunderground v.1.15,2013-08-25 05:00:00,
2013-08-25 00:05:00,70.5,66.8,30.22,South,172,0.0,0.0,88,0.00,,,0.00,Wunderground v.1.15,2013-08-25 05:05:00,
2013-08-25 00:15:00,70.5,66.8,30.22,South,172,0.0,0.0,88,0.00,,,0.00,Wunderground v.1.15,2013-08-25 05:15:00,
2013-08-25 00:25:00,70.6,66.9,30.22,South,172,0.0,0.0,88,0.00,,,0.00,Wunderground v.1.15,2013-08-25 05:25:00,
2013-08-25 00:30:00,70.5,66.8,30.22,South,172,0.0,0.0,88,0.00,,,0.00,Wunderground v.1.15,2013-08-25 05:30:00,
2013-08-25 00:35:00,70.4,66.7,30.22,South,172,0.0,0.0,88,0.00,,,0.00,Wunderground v.1.15,2013-08-25 05:35:00,
2013-08-25 00:40:00,70.4,66.7,30.22,South,172,0.0,0.0,88,0.00,,,0.00,Wunderground v.1.15,2013-08-25 05:40:00,
2013-08-25 00:50:00,70.3,66.6,30.23,South,172,0.0,0.0,88,0.00,,,0.00,Wunderground v.1.15,2013-08-25 05:50:00,
2013-08-25 00:55:00,70.3,66.6,30.23,South,172,0.0,0.0,88,0.00,,,0.00,Wunderground v.1.15,2013-08-25 05:55:00,
2013-08-25 01:00:00,70.2,66.5,30.23,South,172,0.0,0.0,88,0.00,,,0.00,Wunderground v.1.15,2013-08-25 06:00:00,
2013-08-25 01:05:00,70.1,66.4,30.23,South,172,0.0,0.0,88,0.00,,,0.00,Wunderground v.1.15,2013-08-25 06:05:00,
2013-08-25 01:15:00,70.0,66.6,30.23,South,172,0.0,0.0,89,0.00,,,0.00,Wunderground v.1.15,2013-08-25 06:15:00,
2013-08-25 01:25:00,69.9,66.5,30.23,South,172,0.0,0.0,89,0.00,,,0.00,Wunderground v.1.15,2013-08-25 06:25:00,
2013-08-25 01:30:00,69.7,66.3,30.23,South,172,0.0,0.0,89,0.00,,,0.00,Wunderground v.1.15,2013-08-25 06:30:00,
2013-08-25 01:40:00,69.5,66.1,30.23,South,172,0.0,0.0,89,0.00,,,0.00,Wunderground v.1.15,2013-08-25 06:40:00,
2013-08-25 01:45:00,69.4,66.0,30.23,South,172,0.0,0.0,89,0.00,,,0.00,Wunderground v.1.15,2013-08-25 06:45:00,
2013-08-25 01:50:00,69.3,65.9,30.23,South,172,0.0,0.0,89,0.00,,,0.00,Wunderground v.1.15,2013-08-25 06:50:00,
2013-08-25 01:55:00,69.3,65.9,30.23,South,172,0.0,0.0,89,0.00,,,0.00,Wunderground v.1.15,2013-08-25 06:55:00,
2013-08-25 02:00:00,69.2,65.8,30.23,South,172,0.0,0.0,89,0.00,,,0.00,Wunderground v.1.15,2013-08-25 07:00:00,
2013-08-25 02:05:00,69.2,65.8,30.23,South,172,0.0,0.0,89,0.00,,,0.00,Wunderground v.1.15,2013-08-25 07:05:00,
2013-08-25 02:15:00,69.3,65.9,30.23,South,172,0.0,0.0,89,0.00,,,0.00,Wunderground v.1.15,2013-08-25 07:15:00,
2013-08-25 02:25:00,69.2,65.8,30.23,South,172,0.0,0.0,89,0.00,,,0.00,Wunderground v.1.15,2013-08-25 07:25:00,
2013-08-25 02:35:00,69.0,65.6,30.23,South,172,0.0,0.0,89,0.00,,,0.00,Wunderground v.1.15,2013-08-25 07:35:00,
2013-08-25 02:40:00,68.9,65.5,30.23,South,172,0.0,0.0,89,0.00,,,0.00,Wunderground v.1.15,2013-08-25 07:40:00,
2013-08-25 02:45:00,68.8,65.4,30.23,South,172,0.0,0.0,89,0.00,,,0.00,Wunderground v.1.15,2013-08-25 07:45:00,
2013-08-25 02:50:00,68.6,65.2,30.23,South,172,0.0,0.0,89,0.00,,,0.00,Wunderground v.1.15,2013-08-25 07:50:00,
2013-08-25 03:00:00,68.3,64.9,30.23,South,172,0.0,0.0,89,0.00,,,0.00,Wunderground v.1.15,2013-08-25 08:00:00,
2013-08-25 03:05:00,68.2,64.8,30.23,South,172,0.0,0.0,89,0.00,,,0.00,Wunderground v.1.15,2013-08-25 08:05:00,
2013-08-25 03:15:00,68.1,65.1,30.23,South,172,0.0,0.0,90,0.00,,,0.00,Wunderground v.1.15,2013-08-25 08:15:00,
2013-08-25 03:20:00,68.0,65.0,30.23,South,172,0.0,0.0,90,0.00,,,0.00,Wunderground v.1.15,2013-08-25 08:20:00,
2013-08-25 03:25:00,68.0,65.0,30.23,South,172,0.0,0.0,90,0.00,,,0.00,Wunderground v.1.15,2013-08-25 08:25:00,
2013-08-25 03:30:00,68.0,65.0,30.23,South,172,0.0,0.0,90,0.00,,,0.00,Wunderground v.1.15,2013-08-25 08:30:00,
2013-08-25 03:35:00,68.0,65.0,30.23,South,172,0.0,0.0,90,0.00,,,0.00,Wunderground v.1.15,2013-08-25 08:35:00,
2013-08-25 03:45:00,68.2,65.2,30.24,South,172,0.0,0.0,90,0.00,,,0.00,Wunderground v.1.15,2013-08-25 08:45:00,
2013-08-25 03:50:00,68.1,65.1,30.24,South,172,0.0,0.0,90,0.00,,,0.00,Wunderground v.1.15,2013-08-25 08:50:00,
2013-08-25 04:00:00,68.2,65.2,30.23,South,172,0.0,0.0,90,0.00,,,0.00,Wunderground v.1.15,2013-08-25 09:00:00,
2013-08-25 04:05:00,68.2,65.2,30.24,South,172,0.0,0.0,90,0.00,,,0.00,Wunderground v.1.15,2013-08-25 09:05:00,
2013-08-25 04:15:00,68.1,65.1,30.24,South,172,0.0,0.0,90,0.00,,,0.00,Wunderground v.1.15,2013-08-25 09:15:00,
2013-08-25 04:20:00,68.1,65.1,30.24,South,172,0.0,0.0,90,0.00,,,0.00,Wunderground v.1.15,2013-08-25 09:20:00,
2013-08-25 04:25:00,68.0,65.0,30.24,South,172,0.0,0.0,90,0.00,,,0.00,Wunderground v.1.15,2013-08-25 09:25:00,
2013-08-25 04:30:00,67.9,64.9,30.24,South,172,0.0,0.0,90,0.00,,,0.00,Wunderground v.1.15,2013-08-25 09:30:00,
2013-08-25 04:35:00,67.7,64.7,30.24,South,172,0.0,0.0,90,0.00,,,0.00,Wunderground v.1.15,2013-08-25 09:35:00,
2013-08-25 04:40:00,67.5,64.5,30.24,South,172,0.0,0.0,90,0.00,,,0.00,Wunderground v.1.15,2013-08-25 09:40:00,
2013-08-25 04:50:00,67.2,64.2,30.24,South,172,0.0,0.0,90,0.00,,,0.00,Wunderground v.1.15,2013-08-25 09:50:00,
2013-08-25 04:55:00,67.2,64.2,30.25,South,172,0.0,0.0,90,0.00,,,0.00,Wunderground v.1.15,2013-08-25 09:55:00,
2013-08-25 05:00:00,67.1,64.4,30.24,South,172,0.0,0.0,91,0.00,,,0.00,Wunderground v.1.15,2013-08-25 10:00:00,
2013-08-25 05:05:00,67.0,64.3,30.25,South,172,0.0,0.0,91,0.00,,,0.00,Wunderground v.1.15,2013-08-25 10:05:00,
2013-08-25 05:15:00,66.7,63.7,30.25,South,172,0.0,0.0,90,0.00,,,0.00,Wunderground v.1.15,2013-08-25 10:15:00,
2013-08-25 05:25:00,66.5,63.8,30.25,South,172,0.0,0.0,91,0.00,,,0.00,Wunderground v.1.15,2013-08-25 10:25:00,
2013-08-25 05:30:00,66.4,63.7,30.25,South,172,0.0,0.0,91,0.00,,,0.00,Wunderground v.1.15,2013-08-25 10:30:00,
2013-08-25 05:40:00,66.2,63.5,30.25,South,172,0.0,0.0,91,0.00,,,0.00,Wunderground v.1.15,2013-08-25 10:40:00,
2013-08-25 05:45:00,66.1,63.4,30.25,South,172,0.0,0.0,91,0.00,,,0.00,Wunderground v.1.15,2013-08-25 10:45:00,
2013-08-25 05:50:00,65.9,63.2,30.25,South,172,0.0,0.0,91,0.00,,,0.00,Wunderground v.1.15,2013-08-25 10:50:00,
2013-08-25 05:55:00,65.8,63.1,30.26,South,172,0.0,0.0,91,0.00,,,0.00,Wunderground v.1.15,2013-08-25 10:55:00,
2013-08-25 06:05:00,65.5,62.8,30.26,South,172,0.0,0.0,91,0.00,,,0.00,Wunderground v.1.15,2013-08-25 11:05:00,
2013-08-25 06:15:00,65.5,63.1,30.26,South,172,0.0,0.0,92,0.00,,,0.00,Wunderground v.1.15,2013-08-25 11:15:00,
2013-08-25 06:25:00,65.7,63.3,30.26,South,172,0.0,0.0,92,0.00,,,0.00,Wunderground v.1.15,2013-08-25 11:25:00,
2013-08-25 06:35:00,65.8,63.4,30.26,South,172,0.0,0.0,92,0.00,,,0.00,Wunderground v.1.15,2013-08-25 11:35:00,
2013-08-25 06:40:00,65.9,63.5,30.26,South,172,0.0,0.0,92,0.00,,,0.00,Wunderground v.1.15,2013-08-25 11:40:00,
2013-08-25 06:45:00,65.9,63.5,30.26,South,172,0.0,0.0,92,0.00,,,0.00,Wunderground v.1.15,2013-08-25 11:45:00,
2013-08-25 06:50:00,66.0,63.6,30.26,South,172,0.0,0.0,92,0.00,,,0.00,Wunderground v.1.15,2013-08-25 11:50:00,
2013-08-25 06:55:00,66.1,63.7,30.27,South,172,0.0,0.0,92,0.00,,,0.00,Wunderground v.1.15,2013-08-25 11:55:00,
2013-08-25 07:00:00,66.2,63.8,30.27,South,172,0.0,0.0,92,0.00,,,0.00,Wunderground v.1.15,2013-08-25 12:00:00,
2013-08-25 07:05:00,66.4,64.0,30.27,South,172,0.0,0.0,92,0.00,,,0.00,Wunderground v.1.15,2013-08-25 12:05:00,
2013-08-25 07:15:00,66.9,64.2,30.27,South,172,0.0,0.0,91,0.00,,,0.00,Wunderground v.1.15,2013-08-25 12:15:00,
2013-08-25 07:20:00,67.3,64.6,30.27,South,172,0.0,1.0,91,0.00,,,0.00,Wunderground v.1.15,2013-08-25 12:20:00,
2013-08-25 07:25:00,67.9,65.2,30.27,South,172,0.0,1.0,91,0.00,,,0.00,Wunderground v.1.15,2013-08-25 12:25:00,
2013-08-25 07:30:00,68.4,65.7,30.26,SSE,149,0.0,0.0,91,0.00,,,0.00,Wunderground v.1.15,2013-08-25 12:30:00,
2013-08-25 07:40:00,69.4,66.0,30.27,SSE,149,0.0,0.0,89,0.00,,,0.00,Wunderground v.1.15,2013-08-25 12:40:00,
2013-08-25 07:45:00,69.9,66.2,30.27,SE,134,0.0,0.0,88,0.00,,,0.00,Wunderground v.1.15,2013-08-25 12:45:00,
2013-08-25 07:50:00,70.4,66.3,30.27,SE,133,0.0,0.0,87,0.00,,,0.00,Wunderground v.1.15,2013-08-25 12:50:00,
2013-08-25 08:00:00,71.0,66.6,30.26,SSE,157,0.0,0.0,86,0.00,,,0.00,Wunderground v.1.15,2013-08-25 13:00:00,
2013-08-25 08:05:00,71.3,66.9,30.26,SE,146,0.0,0.0,86,0.00,,,0.00,Wunderground v.1.15,2013-08-25 13:05:00,
2013-08-25 08:15:00,71.7,67.3,30.26,SE,146,0.0,1.0,86,0.00,,,0.00,Wunderground v.1.15,2013-08-25 13:15:00,
2013-08-25 08:20:00,71.9,67.5,30.27,SE,146,0.0,0.0,86,0.00,,,0.00,Wunderground v.1.15,2013-08-25 13:20:00,
2013-08-25 08:30:00,72.3,67.5,30.27,SE,146,0.0,0.0,85,0.00,,,0.00,Wunderground v.1.15,2013-08-25 13:30:00,
2013-08-25 08:35:00,72.5,67.7,30.27,SE,146,0.0,0.0,85,0.00,,,0.00,Wunderground v.1.15,2013-08-25 13:35:00,
2013-08-25 08:40:00,72.7,67.9,30.27,SE,146,0.0,0.0,85,0.00,,,0.00,Wunderground v.1.15,2013-08-25 13:40:00,
2013-08-25 08:50:00,73.1,68.0,30.27,SE,146,0.0,0.0,84,0.00,,,0.00,Wunderground v.1.15,2013-08-25 13:50:00,
2013-08-25 08:55:00,73.3,68.2,30.27,SE,144,0.0,2.0,84,0.00,,,0.00,Wunderground v.1.15,2013-08-25 13:55:00,
2013-08-25 09:00:00,73.6,68.5,30.27,SE,144,0.0,0.0,84,0.00,,,0.00,Wunderground v.1.15,2013-08-25 14:00:00,
2013-08-25 09:05:00,73.8,68.3,30.27,SSE,161,0.0,0.0,83,0.00,,,0.00,Wunderground v.1.15,2013-08-25 14:05:00,
2013-08-25 09:15:00,74.6,68.7,30.26,WNW,296,0.0,1.0,82,0.00,,,0.00,Wunderground v.1.15,2013-08-25 14:15:00,
2013-08-25 09:20:00,75.1,69.2,30.26,West,271,0.0,0.0,82,0.00,,,0.00,Wunderground v.1.15,2013-08-25 14:20:00,
2013-08-25 09:25:00,75.8,69.6,30.26,North,11,0.0,0.0,81,0.00,,,0.00,Wunderground v.1.15,2013-08-25 14:25:00,
2013-08-25 09:35:00,76.6,69.6,30.26,NW,319,1.0,1.0,79,0.00,,,0.00,Wunderground v.1.15,2013-08-25 14:35:00,
2013-08-25 09:45:00,77.3,69.9,30.26,West,272,0.0,3.0,78,0.00,,,0.00,Wunderground v.1.15,2013-08-25 14:45:00,
2013-08-25 09:50:00,77.7,70.3,30.26,WNW,301,0.0,2.0,78,0.00,,,0.00,Wunderground v.1.15,2013-08-25 14:50:00,
2013-08-25 09:55:00,78.0,70.2,30.26,West,271,1.0,2.0,77,0.00,,,0.00,Wunderground v.1.15,2013-08-25 14:55:00,
2013-08-25 10:00:00,78.3,70.1,30.26,West,275,1.0,1.0,76,0.00,,,0.00,Wunderground v.1.15,2013-08-25 15:00:00,
2013-08-25 10:05:00,78.7,70.5,30.26,West,278,1.0,1.0,76,0.00,,,0.00,Wunderground v.1.15,2013-08-25 15:05:00,
2013-08-25 10:15:00,79.2,71.0,30.26,WSW,238,0.0,0.0,76,0.00,,,0.00,Wunderground v.1.15,2013-08-25 15:15:00,
2013-08-25 10:20:00,79.6,71.0,30.26,WSW,252,1.0,1.0,75,0.00,,,0.00,Wunderground v.1.15,2013-08-25 15:20:00,
2013-08-25 10:25:00,79.9,70.9,30.26,SW,217,0.0,1.0,74,0.00,,,0.00,Wunderground v.1.15,2013-08-25 15:25:00,
2013-08-25 10:30:00,80.4,71.3,30.25,NNW,333,0.0,1.0,74,0.00,,,0.00,Wunderground v.1.15,2013-08-25 15:30:00,
2013-08-25 10:40:00,81.0,71.1,30.25,SSW,194,1.0,1.0,72,0.00,,,0.00,Wunderground v.1.15,2013-08-25 15:40:00,
2013-08-25 10:45:00,81.3,71.4,30.25,SSE,156,1.0,1.0,72,0.00,,,0.00,Wunderground v.1.15,2013-08-25 15:45:00,
2013-08-25 10:55:00,82.4,71.6,30.25,West,263,1.0,4.0,70,0.00,,,0.00,Wunderground v.1.15,2013-08-25 15:55:00,
2013-08-25 11:00:00,83.3,72.5,30.25,East,100,1.0,1.0,70,0.00,,,0.00,Wunderground v.1.15,2013-08-25 16:00:00,
2013-08-25 11:05:00,84.2,72.0,30.25,ESE,106,1.0,2.0,67,0.00,,,0.00,Wunderground v.1.15,2013-08-25 16:05:00,
2013-08-25 11:15:00,85.1,72.0,30.25,SW,223,1.0,1.0,65,0.00,,,0.00,Wunderground v.1.15,2013-08-25 16:15:00,
2013-08-25 11:20:00,85.1,72.0,30.25,SW,214,1.0,1.0,65,0.00,,,0.00,Wunderground v.1.15,2013-08-25 16:20:00,
2013-08-25 11:25:00,85.6,72.0,30.25,East,99,1.0,1.0,64,0.00,,,0.00,Wunderground v.1.15,2013-08-25 16:25:00,
2013-08-25 11:30:00,86.1,72.5,30.25,NW,306,0.0,3.0,64,0.00,,,0.00,Wunderground v.1.15,2013-08-25 16:30:00,
2013-08-25 11:35:00,86.5,72.4,30.25,West,280,1.0,3.0,63,0.00,,,0.00,Wunderground v.1.15,2013-08-25 16:35:00,
2013-08-25 11:45:00,86.7,72.6,30.24,NW,304,2.0,2.0,63,0.00,,,0.00,Wunderground v.1.15,2013-08-25 16:45:00,
2013-08-25 11:50:00,86.7,72.1,30.24,West,272,1.0,8.0,62,0.00,,,0.00,Wunderground v.1.15,2013-08-25 16:50:00,
2013-08-25 12:00:00,87.8,73.2,30.24,SW,215,1.0,1.0,62,0.00,,,0.00,Wunderground v.1.15,2013-08-25 17:00:00,
2013-08-25 12:05:00,88.3,72.7,30.24,NNW,345,1.0,1.0,60,0.00,,,0.00,Wunderground v.1.15,2013-08-25 17:05:00,
2013-08-25 12:15:00,89.0,72.8,30.23,SW,234,1.0,5.0,59,0.00,,,0.00,Wunderground v.1.15,2013-08-25 17:15:00,
2013-08-25 12:20:00,89.7,72.4,30.23,West,275,1.0,1.0,57,0.00,,,0.00,Wunderground v.1.15,2013-08-25 17:20:00,
2013-08-25 12:25:00,90.3,73.5,30.23,WSW,244,1.0,1.0,58,0.00,,,0.00,Wunderground v.1.15,2013-08-25 17:25:00,
2013-08-25 12:30:00,90.4,72.6,30.23,East,98,1.0,1.0,56,0.00,,,0.00,Wunderground v.1.15,2013-08-25 17:30:00,
2013-08-25 12:35:00,89.5,72.8,30.23,West,281,1.0,6.0,58,0.00,,,0.00,Wunderground v.1.15,2013-08-25 17:35:00,
2013-08-25 12:45:00,89.4,72.2,30.22,NW,309,1.0,1.0,57,0.00,,,0.00,Wunderground v.1.15,2013-08-25 17:45:00,
2013-08-25 12:50:00,89.3,71.5,30.22,WNW,287,2.0,2.0,56,0.00,,,0.00,Wunderground v.1.15,2013-08-25 17:50:00,
2013-08-25 12:55:00,89.7,71.4,30.22,WNW,290,1.0,2.0,55,0.00,,,0.00,Wunderground v.1.15,2013-08-25 17:55:00,
2013-08-25 13:00:00,90.2,71.8,30.22,SSW,203,1.0,1.0,55,0.00,,,0.00,Wunderground v.1.15,2013-08-25 18:00:00,
2013-08-25 13:05:00,91.0,70.9,30.22,SW,225,1.0,1.0,52,0.00,,,0.00,Wunderground v.1.15,2013-08-25 18:05:00,
2013-08-25 13:15:00,90.9,72.5,30.21,WNW,285,1.0,4.0,55,0.00,,,0.00,Wunderground v.1.15,2013-08-25 18:15:00,
2013-08-25 13:20:00,91.6,71.5,30.21,WNW,282,1.0,1.0,52,0.00,,,0.00,Wunderground v.1.15,2013-08-25 18:20:00,
2013-08-25 13:25:00,91.8,70.5,30.21,ESE,113,1.0,1.0,50,0.00,,,0.00,Wunderground v.1.15,2013-08-25 18:25:00,
2013-08-25 13:30:00,91.8,69.9,30.21,NW,304,0.0,2.0,49,0.00,,,0.00,Wunderground v.1.15,2013-08-25 18:30:00,
2013-08-25 13:35:00,91.8,69.9,30.21,East,98,1.0,2.0,49,0.00,,,0.00,Wunderground v.1.15,2013-08-25 18:35:00,
2013-08-25 13:40:00,92.3,70.4,30.21,ESE,116,1.0,1.0,49,0.00,,,0.00,Wunderground v.1.15,2013-08-25 18:40:00,
2013-08-25 13:45:00,92.1,69.6,30.21,East,101,1.0,1.0,48,0.00,,,0.00,Wunderground v.1.15,2013-08-25 18:45:00,
2013-08-25 13:55:00,92.0,69.5,30.21,East,87,0.0,5.0,48,0.00,,,0.00,Wunderground v.1.15,2013-08-25 18:55:00,
2013-08-25 14:00:00,92.3,68.5,30.21,SSE,152,1.0,1.0,46,0.00,,,0.00,Wunderground v.1.15,2013-08-25 19:00:00,
2013-08-25 14:05:00,92.0,68.9,30.21,SSW,200,1.0,3.0,47,0.00,,,0.00,Wunderground v.1.15,2013-08-25 19:05:00,
2013-08-25 14:15:00,92.3,69.8,30.21,WNW,290,1.0,3.0,48,0.00,,,0.00,Wunderground v.1.15,2013-08-25 19:15:00,
2013-08-25 14:20:00,92.6,70.0,30.21,South,184,1.0,1.0,48,0.00,,,0.00,Wunderground v.1.15,2013-08-25 19:20:00,
2013-08-25 14:30:00,93.1,69.9,30.20,West,269,1.0,1.0,47,0.00,,,0.00,Wunderground v.1.15,2013-08-25 19:30:00,
2013-08-25 15:40:00,92.1,70.8,30.19,SSE,156,1.0,1.0,50,0.00,,,0.00,Wunderground v.1.15,2013-08-25 20:40:00,
2013-08-25 15:50:00,91.0,70.9,30.18,ESE,123,1.0,1.0,52,0.00,,,0.00,Wunderground v.1.15,2013-08-25 20:50:00,
2013-08-25 15:55:00,90.7,70.1,30.18,SE,128,1.0,1.0,51,0.00,,,0.00,Wunderground v.1.15,2013-08-25 20:55:00,
2013-08-25 16:00:00,90.3,70.3,30.18,ESE,109,1.0,7.0,52,0.00,,,0.00,Wunderground v.1.15,2013-08-25 21:00:00,
2013-08-25 16:05:00,89.6,70.2,30.17,South,173,1.0,7.0,53,0.00,,,0.00,Wunderground v.1.15,2013-08-25 21:05:00,
2013-08-25 16:15:00,88.9,70.1,30.17,SE,130,1.0,1.0,54,0.00,,,0.00,Wunderground v.1.15,2013-08-25 21:15:00,
2013-08-25 16:20:00,88.6,70.4,30.17,South,180,1.0,4.0,55,0.00,,,0.00,Wunderground v.1.15,2013-08-25 21:20:00,
2013-08-25 16:25:00,88.5,70.3,30.17,SE,140,1.0,4.0,55,0.00,,,0.00,Wunderground v.1.15,2013-08-25 21:25:00,
2013-08-25 16:30:00,88.5,69.7,30.17,SW,229,1.0,4.0,54,0.00,,,0.00,Wunderground v.1.15,2013-08-25 21:30:00,
2013-08-25 16:40:00,88.6,69.8,30.17,SE,128,1.0,1.0,54,0.00,,,0.00,Wunderground v.1.15,2013-08-25 21:40:00,
2013-08-25 16:45:00,88.4,70.2,30.17,SE,139,1.0,1.0,55,0.00,,,0.00,Wunderground v.1.15,2013-08-25 21:45:00,
2013-08-25 16:50:00,88.4,70.2,30.17,SE,124,1.0,1.0,55,0.00,,,0.00,Wunderground v.1.15,2013-08-25 21:50:00,
2013-08-25 16:55:00,88.6,69.8,30.17,ESE,118,1.0,1.0,54,0.00,,,0.00,Wunderground v.1.15,2013-08-25 21:55:00,
2013-08-25 17:00:00,88.7,70.5,30.17,ESE,117,1.0,1.0,55,0.00,,,0.00,Wunderground v.1.15,2013-08-25 22:00:00,
2013-08-25 17:05:00,88.7,69.9,30.17,ESE,105,0.0,2.0,54,0.00,,,0.00,Wunderground v.1.15,2013-08-25 22:05:00,
2013-08-25 17:15:00,88.7,70.5,30.17,SE,127,1.0,1.0,55,0.00,,,0.00,Wunderground v.1.15,2013-08-25 22:15:00,
2013-08-25 17:20:00,88.6,70.4,30.16,SSE,166,1.0,1.0,55,0.00,,,0.00,Wunderground v.1.15,2013-08-25 22:20:00,
2013-08-25 17:30:00,88.4,70.7,30.17,ESE,109,1.0,1.0,56,0.00,,,0.00,Wunderground v.1.15,2013-08-25 22:30:00,
2013-08-25 17:35:00,88.3,70.6,30.17,SE,130,1.0,1.0,56,0.00,,,0.00,Wunderground v.1.15,2013-08-25 22:35:00,
2013-08-25 17:45:00,88.0,70.3,30.16,SE,146,0.0,0.0,56,0.00,,,0.00,Wunderground v.1.15,2013-08-25 22:45:00,
2013-08-25 17:50:00,87.8,70.7,30.16,East,93,0.0,0.0,57,0.00,,,0.00,Wunderground v.1.15,2013-08-25 22:50:00,
2013-08-25 17:55:00,87.7,70.6,30.16,SE,142,1.0,1.0,57,0.00,,,0.00,Wunderground v.1.15,2013-08-25 22:55:00,
2013-08-25 18:00:00,87.4,70.8,30.16,SE,146,1.0,1.0,58,0.00,,,0.00,Wunderground v.1.15,2013-08-25 23:00:00,
2013-08-25 18:05:00,87.2,70.6,30.17,SE,142,0.0,1.0,58,0.00,,,0.00,Wunderground v.1.15,2013-08-25 23:05:00,
2013-08-25 18:15:00,86.9,70.8,30.16,South,178,0.0,0.0,59,0.00,,,0.00,Wunderground v.1.15,2013-08-25 23:15:00,
2013-08-25 18:20:00,86.6,71.1,30.16,SE,145,0.0,0.0,60,0.00,,,0.00,Wunderground v.1.15,2013-08-25 23:20:00,
2013-08-25 18:25:00,86.1,71.1,30.16,SE,126,0.0,0.0,61,0.00,,,0.00,Wunderground v.1.15,2013-08-25 23:25:00,
2013-08-25 18:30:00,85.5,70.5,30.16,SE,125,0.0,0.0,61,0.00,,,0.00,Wunderground v.1.15,2013-08-25 23:30:00,
2013-08-25 18:35:00,85.0,70.5,30.16,SE,125,0.0,0.0,62,0.00,,,0.00,Wunderground v.1.15,2013-08-25 23:35:00,
2013-08-25 18:45:00,84.1,70.6,30.16,SE,125,0.0,0.0,64,0.00,,,0.00,Wunderground v.1.15,2013-08-25 23:45:00,
2013-08-25 18:50:00,83.7,70.2,30.16,SE,125,0.0,2.0,64,0.00,,,0.00,Wunderground v.1.15,2013-08-25 23:50:00,
2013-08-25 18:55:00,83.3,70.3,30.16,SE,125,0.0,2.0,65,0.00,,,0.00,Wunderground v.1.15,2013-08-25 23:55:00,
2013-08-25 19:00:00,83.0,70.0,30.16,SE,125,0.0,0.0,65,0.00,,,0.00,Wunderground v.1.15,2013-08-26 00:00:00,
2013-08-25 19:05:00,82.7,70.2,30.16,SE,125,0.0,0.0,66,0.00,,,0.00,Wunderground v.1.15,2013-08-26 00:05:00,
2013-08-25 19:15:00,82.0,70.0,30.16,SE,125,0.0,0.0,67,0.00,,,0.00,Wunderground v.1.15,2013-08-26 00:15:00,
2013-08-25 19:20:00,81.7,69.7,30.16,SE,125,0.0,0.0,67,0.00,,,0.00,Wunderground v.1.15,2013-08-26 00:20:00,
2013-08-25 19:25:00,81.3,69.7,30.16,SE,125,0.0,0.0,68,0.00,,,0.00,Wunderground v.1.15,2013-08-26 00:25:00,
2013-08-25 19:35:00,80.6,69.5,30.16,SE,125,0.0,0.0,69,0.00,,,0.00,Wunderground v.1.15,2013-08-26 00:35:00,
2013-08-25 19:40:00,80.1,69.4,30.16,SE,125,0.0,0.0,70,0.00,,,0.00,Wunderground v.1.15,2013-08-26 00:40:00,
2013-08-25 19:45:00,79.4,69.6,30.16,SE,125,0.0,0.0,72,0.00,,,0.00,Wunderground v.1.15,2013-08-26 00:45:00,
2013-08-25 19:50:00,78.7,69.3,30.16,SE,125,0.0,0.0,73,0.00,,,0.00,Wunderground v.1.15,2013-08-26 00:50:00,
2013-08-25 19:55:00,78.0,69.0,30.16,SE,125,0.0,0.0,74,0.00,,,0.00,Wunderground v.1.15,2013-08-26 00:55:00,
2013-08-25 20:00:00,77.4,68.9,30.16,SE,125,0.0,0.0,75,0.00,,,0.00,Wunderground v.1.15,2013-08-26 01:00:00,
2013-08-25 20:05:00,76.8,68.7,30.16,SE,125,0.0,0.0,76,0.00,,,0.00,Wunderground v.1.15,2013-08-26 01:05:00,
2013-08-25 20:15:00,75.7,68.4,30.16,SE,125,0.0,0.0,78,0.00,,,0.00,Wunderground v.1.15,2013-08-26 01:15:00,
2013-08-25 20:20:00,75.5,68.5,30.16,SE,125,0.0,0.0,79,0.00,,,0.00,Wunderground v.1.15,2013-08-26 01:20:00,
2013-08-25 20:25:00,75.3,68.3,30.16,SE,125,0.0,0.0,79,0.00,,,0.00,Wunderground v.1.15,2013-08-26 01:25:00,
2013-08-25 20:35:00,74.9,67.9,30.17,SE,125,0.0,0.0,79,0.00,,,0.00,Wunderground v.1.15,2013-08-26 01:35:00,
2013-08-25 20:40:00,74.6,68.0,30.17,SE,125,0.0,0.0,80,0.00,,,0.00,Wunderground v.1.15,2013-08-26 01:40:00,
2013-08-25 20:45:00,74.2,68.0,30.17,SE,125,0.0,0.0,81,0.00,,,0.00,Wunderground v.1.15,2013-08-26 01:45:00,
2013-08-25 20:50:00,73.9,68.1,30.17,SE,125,0.0,0.0,82,0.00,,,0.00,Wunderground v.1.15,2013-08-26 01:50:00,
2013-08-25 20:55:00,73.6,67.8,30.17,SE,125,0.0,0.0,82,0.00,,,0.00,Wunderground v.1.15,2013-08-26 01:55:00,
2013-08-25 21:00:00,73.5,67.7,30.17,SE,125,0.0,0.0,82,0.00,,,0.00,Wunderground v.1.15,2013-08-26 02:00:00,
2013-08-25 21:05:00,73.5,67.7,30.18,SE,125,0.0,0.0,82,0.00,,,0.00,Wunderground v.1.15,2013-08-26 02:05:00,
2013-08-25 21:15:00,73.3,67.5,30.18,SE,125,0.0,0.0,82,0.00,,,0.00,Wunderground v.1.15,2013-08-26 02:15:00,
2013-08-25 21:20:00,73.0,67.5,30.18,SE,125,0.0,0.0,83,0.00,,,0.00,Wunderground v.1.15,2013-08-26 02:20:00,
2013-08-25 21:25:00,72.7,67.2,30.18,SE,125,0.0,0.0,83,0.00,,,0.00,Wunderground v.1.15,2013-08-26 02:25:00,
2013-08-25 21:30:00,72.3,67.2,30.18,SE,125,0.0,0.0,84,0.00,,,0.00,Wunderground v.1.15,2013-08-26 02:30:00,
2013-08-25 21:35:00,71.9,67.1,30.18,SE,125,0.0,0.0,85,0.00,,,0.00,Wunderground v.1.15,2013-08-26 02:35:00,
2013-08-25 21:40:00,71.6,66.8,30.18,SE,125,0.0,0.0,85,0.00,,,0.00,Wunderground v.1.15,2013-08-26 02:40:00,
2013-08-25 21:45:00,71.3,66.9,30.18,SE,125,0.0,0.0,86,0.00,,,0.00,Wunderground v.1.15,2013-08-26 02:45:00,
2013-08-25 21:55:00,70.9,66.5,30.18,SE,125,0.0,0.0,86,0.00,,,0.00,Wunderground v.1.15,2013-08-26 02:55:00,
2013-08-25 22:00:00,70.7,66.3,30.18,SE,125,0.0,0.0,86,0.00,,,0.00,Wunderground v.1.15,2013-08-26 03:00:00,
2013-08-25 22:05:00,70.7,66.3,30.18,SE,125,0.0,0.0,86,0.00,,,0.00,Wunderground v.1.15,2013-08-26 03:05:00,
2013-08-25 22:15:00,70.8,66.4,30.18,SE,125,0.0,0.0,86,0.00,,,0.00,Wunderground v.1.15,2013-08-26 03:15:00,
2013-08-25 22:20:00,70.9,66.5,30.18,SE,125,0.0,0.0,86,0.00,,,0.00,Wunderground v.1.15,2013-08-26 03:20:00,
2013-08-25 22:25:00,71.2,66.8,30.18,SE,125,0.0,0.0,86,0.00,,,0.00,Wunderground v.1.15,2013-08-26 03:25:00,
2013-08-25 22:35:00,72.0,66.9,30.18,SE,125,0.0,0.0,84,0.00,,,0.00,Wunderground v.1.15,2013-08-26 03:35:00,
2013-08-25 22:40:00,72.4,66.9,30.18,SE,125,0.0,0.0,83,0.00,,,0.00,Wunderground v.1.15,2013-08-26 03:40:00,
2013-08-25 22:45:00,72.7,66.9,30.19,SE,125,0.0,0.0,82,0.00,,,0.00,Wunderground v.1.15,2013-08-26 03:45:00,
2013-08-25 22:55:00,73.0,67.2,30.19,SE,125,0.0,1.0,82,0.00,,,0.00,Wunderground v.1.15,2013-08-26 03:55:00,
2013-08-25 23:00:00,73.0,67.2,30.19,SE,125,0.0,0.0,82,0.00,,,0.00,Wunderground v.1.15,2013-08-26 04:00:00,
2013-08-25 23:05:00,72.9,67.1,30.19,SE,125,0.0,0.0,82,0.00,,,0.00,Wunderground v.1.15,2013-08-26 04:05:00,
2013-08-25 23:10:00,72.8,67.0,30.19,SE,125,0.0,0.0,82,0.00,,,0.00,Wunderground v.1.15,2013-08-26 04:10:00,
2013-08-25 23:15:00,72.6,66.8,30.19,SE,125,0.0,0.0,82,0.00,,,0.00,Wunderground v.1.15,2013-08-26 04:15:00,
2013-08-25 23:20:00,72.2,66.4,30.19,SE,125,0.0,0.0,82,0.00,,,0.00,Wunderground v.1.15,2013-08-26 04:20:00,
2013-08-25 23:25:00,71.7,66.3,30.19,SE,125,0.0,0.0,83,0.00,,,0.00,Wunderground v.1.15,2013-08-26 04:25:00,
2013-08-25 23:30:00,71.2,66.1,30.19,SE,125,0.0,0.0,84,0.00,,,0.00,Wunderground v.1.15,2013-08-26 04:30:00,
2013-08-25 23:35:00,70.6,65.9,30.19,SE,125,0.0,0.0,85,0.00,,,0.00,Wunderground v.1.15,2013-08-26 04:35:00,
2013-08-25 23:40:00,70.3,65.6,30.18,SE,125,0.0,0.0,85,0.00,,,0.00,Wunderground v.1.15,2013-08-26 04:40:00,
2013-08-25 23:45:00,69.8,65.4,30.18,SE,125,0.0,0.0,86,0.00,,,0.00,Wunderground v.1.15,2013-08-26 04:45:00,
2013-08-25 23:50:00,69.4,65.0,30.18,SE,125,0.0,0.0,86,0.00,,,0.00,Wunderground v.1.15,2013-08-26 04:50:00,
2013-08-25 23:55:00,68.9,64.9,30.18,SE,125,0.0,0.0,87,0.00,,,0.00,Wunderground v.1.15,2013-08-26 04:55:00,